Погода в Карпиловке

Украина / Черниговская область     50°36′24″N   33°02′57″E
темп.,
°C
ветер,
м/с
пор.,
м/с
влажн.,
%
обл.,
%
осадки,
мм/ч
давл.,
гПа
погр.,
м
28 ноября, вс
вс2823:00+5ююз34946 0.0 100361
02:00+5з22935 0.0 100520
05:00+4ююв11935 0.0 100510
08:00+4ююв34935 0.0 100661
11:00+7ююв35815 0.0 1006220
14:00+8юв378271 0.0 1006306
17:00+6юв5109393 0.0 1005209
20:00+6юв51391100 0.0 1004279
29 ноября, пн
пн2923:00+7ююв4119568 0.0 1003284
02:00+7юв3998100 0.0 1002242
05:00+8юв4899100 0.0 1000272
08:00+8ююв51197100 0.0 999396
11:00+9ююв61392100 0.0 996677
14:00+10юв71496100 1.9 990728
17:00+10ю71496100 9.1 985683
20:00+9ююз51097100 10.6 982435
30 ноября, вт
вт3023:00+9зюз111592100 7.1 981921
02:00+3зюз132078100 8.0 9881175
05:00+3зюз121869100 0.0 9911184
08:00+2зюз11187087 0.0 9941277
11:00+2зюз111667100 0.0 9961315
14:00+2зюз81470100 0.0 9961340
17:00+2з8127194 0.0 9971039
20:00+1з6127922 0.1 997803
1 декабря, ср
ср123:000з488672 0.0 998505
02:00−2зюз598436 0.0 998399
05:00−1юз41182100 0.0 997473
08:00−1юз61295100 0.4 997665
11:00+1зюз51197100 0.9 997618
14:00+1зсз598878 1.1 998778
17:000сз5882100 0.1 1002722
20:000зсз4680100 0.1 1004557
2 декабря, чт
чт223:000ююз3584100 0.0 1005271
02:000ююз6128498 0.0 1005538
05:00+1ююз81792100 0.1 1003701
08:00+2ююз7167996 0.1 1003459
11:00+4ююз714765 0.0 1003542
14:00+5юз6117692 0.0 1003523
17:00+4ююз5128399 0.0 1004296
20:00+3ююз4118520 0.0 1005234